Temp
47 46 46 45 46 46 45 43 42 42 42 41 41 41 41 42 39 38 38 37 37 37 36 36 36 35 36 35 35 35 35 35 35 33 34 35 34 34 35 33 32 35
46 46 46 45 45 44 44 44 43 43 43 42 42 41 40 38 38 38 37 37 37 37 35 35 35 35 35 35 34 35 34 34 35 34 34 34 34 33 34 32 32 30
46 45 45 45 46 45 44 43 43 43 43 42 41 40 40 38 38 37 37 37 37 36 35 35 35 35 35 35 34 35 35 34 34 31 32 32 31 33 31 30 30 30
45 46 46 46 46 45 44 42 41 41 40 40 40 40 40 39 38 37 37 38 37 36 35 35 35 34 33 33 32 33 33 33 33 31 31 30 31 31 30 30 30 30
45 45 45 45 45 43 42 42 42 41 40 42 40 39 39 38 37 37 36 36 36 36 34 34 33 33 33 33 32 33 33 33 30 31 31 30 30 31 30 30 30 30
43 44 44 44 44 43 42 42 43 42 41 40 41 40 39 39 38 37 36 36 35 35 34 34 33 33 33 33 32 33 33 32 31 30 31 31 30 30 31 30 30 30
43 43 43 43 42 42 42 42 42 42 42 43 40 39 38 37 37 37 37 37 36 36 35 34 34 33 32 32 32 33 32 32 30 31 31 31 30 29 29 29 30 30
43 43 43 41 42 41 42 42 42 42 42 40 39 39 38 38 37 37 37 36 35 35 35 34 34 34 33 33 33 32 32 32 31 31 31 31 30 30 29 29 30 29
43 42 41 41 41 42 42 43 43 42 40 40 39 38 37 38 37 37 36 36 35 35 35 34 34 34 33 33 33 33 33 32 32 31 32 31 30 31 30 29 29 29
42 42 40 41 41 42 42 42 42 41 39 39 39 37 37 37 37 36 36 35 35 35 34 35 34 34 33 33 34 33 33 33 32 31 32 32 32 31 30 29 30 29
41 40 40 40 41 41 41 41 40 39 38 38 38 37 37 36 36 36 36 35 35 35 35 35 35 34 33 33 33 34 34 33 32 32 32 32 32 32 32 30 30 30
39 39 39 40 40 40 40 40 40 39 38 38 38 38 37 37 37 35 36 35 36 36 36 35 34 34 34 33 33 33 33 33 32 32 32 32 31 31 31 30 30 30
39 39 40 40 40 40 40 39 38 38 38 38 37 38 37 36 35 34 35 35 35 35 35 35 34 33 33 33 33 33 32 32 32 31 31 31 31 31 30 30 30 30
39 39 39 40 40 39 38 38 37 37 37 37 35 36 36 36 35 35 35 34 35 35 35 34 34 33 33 33 33 33 32 32 32 31 31 31 30 29 29 29 30 30
39 38 38 37 37 37 37 37 37 37 36 36 35 35 36 36 36 35 34 34 34 34 34 33 33 33 34 33 33 32 32 32 31 31 31 30 29 28 28 28 29 29
38 37 37 37 37 37 37 37 36 36 35 35 35 35 35 35 34 34 34 34 33 33 33 33 33 34 35 36 36 34 32 32 31 31 30 30 30 28 27 27 28 28
37 37 36 36 37 37 36 36 36 35 34 34 34 34 34 33 33 33 33 34 34 33 33 33 34 34 36 37 38 38 34 32 31 31 30 30 30 29 28 27 27 26
35 35 35 35 34 35 34 34 33 33 34 34 33 33 33 32 33 34 34 34 34 34 34 34 34 35 37 38 38 38 37 33 32 31 31 30 30 29 29 28 27 26
34 34 35 34 34 34 34 33 33 33 33 33 33 34 33 32 33 34 34 34 34 34 34 34 34 36 37 38 38 38 38 36 33 32 31 30 30 30 29 28 27 26
34 34 35 35 34 33 33 33 33 34 34 34 34 33 33 33 33 33 34 34 34 34 34 34 34 35 37 38 38 38 38 37 34 32 32 31 30 30 30 29 28 27
34 34 35 34 33 33 33 33 34 34 34 34 34 34 33 33 34 33 33 33 33 33 33 33 34 36 37 37 38 38 38 38 35 33 32 31 31 30 30 30 29 28
34 34 34 34 34 33 33 33 34 34 34 33 33 33 33 33 33 34 33 33 33 33 33 33 34 37 37 37 38 38 38 36 34 33 31 31 30 30 30 30 29 29
34 34 34 33 33 33 33 33 33 33 33 33 32 33 33 33 33 34 34 33 33 33 33 33 33 35 36 37 37 38 37 35 34 32 31 30 29 29 29 28 28 27
33 33 33 33 32 33 33 34 34 34 34 33 33 33 33 34 34 33 33 33 33 33 33 32 33 34 36 36 37 37 36 34 33 32 31 29 28 27 27 27 27 27
33 34 34 34 34 34 34 34 34 34 33 33 33 33 33 32 32 32 31 31 32 32 32 32 33 33 35 36 36 37 36 35 33 31 29 27 26 25 25 24 25 26
33 33 34 34 34 34 33 33 33 32 32 31 31 31 31 30 30 31 31 31 31 31 32 32 32 32 33 35 36 36 37 35 33 30 28 26 25 24 23 22 23 24
MSLP
1009.43 1009.71 1009.83 1010.15 1010.23 1010.35 1010.63 1011.07 1011.39 1011.55 1011.71 1011.99 1012.11 1012.19 1012.35 1012.43 1012.99 1013.27 1013.55 1013.87 1014.03 1014.19 1014.39 1014.51 1014.67 1014.83 1014.99 1015.15 1015.27 1015.39 1015.43 1015.35 1015.39 1015.51 1015.47 1015.55 1015.59 1015.63 1015.67 1015.87 1016.11 1016.07
1009.07 1009.27 1009.51 1009.79 1010.03 1010.31 1010.43 1010.63 1010.87 1011.07 1011.23 1011.51 1011.63 1011.83 1012.15 1012.47 1012.79 1013.07 1013.35 1013.63 1013.87 1013.99 1014.19 1014.31 1014.43 1014.51 1014.59 1014.79 1014.91 1014.99 1015.07 1015.19 1014.99 1015.43 1015.31 1015.47 1015.59 1015.87 1015.79 1016.11 1016.27 1016.67
1008.83 1009.11 1009.27 1009.39 1009.47 1009.67 1009.91 1010.27 1010.59 1010.83 1010.95 1011.11 1011.47 1011.79 1012.03 1012.31 1012.59 1012.87 1013.07 1013.23 1013.47 1013.63 1013.83 1013.95 1014.07 1014.19 1014.27 1014.39 1014.67 1014.87 1015.03 1015.31 1015.39 1015.83 1015.87 1015.91 1016.19 1016.15 1016.27 1016.47 1016.51 1016.47
1008.51 1008.71 1008.87 1009.03 1009.19 1009.35 1009.75 1010.19 1010.47 1010.67 1010.91 1011.15 1011.19 1011.43 1011.71 1012.03 1012.31 1012.55 1012.75 1012.95 1013.11 1013.27 1013.51 1013.79 1013.95 1014.31 1014.63 1014.87 1015.11 1015.27 1015.43 1015.59 1015.71 1015.91 1015.91 1016.07 1016.23 1016.27 1016.35 1016.51 1016.55 1016.67
1008.23 1008.55 1008.79 1008.87 1009.07 1009.31 1009.71 1009.95 1010.11 1010.31 1010.55 1010.55 1010.87 1011.23 1011.47 1011.71 1011.95 1012.15 1012.43 1012.67 1012.91 1013.19 1013.59 1013.91 1014.19 1014.39 1014.63 1014.79 1014.95 1015.03 1015.19 1015.35 1015.59 1015.75 1015.71 1015.71 1015.99 1016.11 1016.31 1016.39 1016.35 1016.27
1008.07 1008.27 1008.43 1008.59 1008.75 1009.07 1009.35 1009.43 1009.55 1009.87 1010.11 1010.39 1010.27 1010.63 1010.91 1011.15 1011.51 1011.83 1012.15 1012.43 1012.75 1012.95 1013.27 1013.59 1013.83 1014.11 1014.39 1014.59 1014.83 1014.83 1014.95 1015.15 1015.43 1015.59 1015.55 1015.43 1015.75 1016.07 1016.19 1016.27 1016.27 1016.19
1007.51 1007.79 1007.95 1008.15 1008.47 1008.71 1008.87 1008.99 1009.15 1009.39 1009.55 1009.47 1009.95 1010.31 1010.59 1010.95 1011.19 1011.43 1011.71 1011.95 1012.27 1012.55 1012.79 1013.07 1013.43 1013.79 1014.11 1014.31 1014.47 1014.55 1014.71 1014.83 1015.19 1015.39 1015.35 1015.47 1015.67 1015.87 1016.11 1016.15 1016.15 1016.15
1006.87 1007.15 1007.39 1007.87 1008.03 1008.23 1008.35 1008.47 1008.63 1008.75 1008.83 1009.35 1009.59 1009.87 1010.31 1010.51 1010.83 1011.11 1011.39 1011.71 1011.99 1012.23 1012.51 1012.75 1012.99 1013.23 1013.55 1013.83 1014.03 1014.19 1014.39 1014.63 1014.83 1015.07 1015.15 1015.23 1015.55 1015.51 1015.83 1016.03 1016.03 1015.99
1006.47 1006.79 1007.11 1007.31 1007.51 1007.71 1007.91 1007.95 1008.11 1008.31 1008.71 1009.03 1009.27 1009.67 1010.03 1010.23 1010.51 1010.79 1011.07 1011.43 1011.67 1011.87 1012.15 1012.35 1012.47 1012.71 1013.03 1013.23 1013.39 1013.55 1013.75 1014.11 1014.31 1014.51 1014.63 1014.75 1014.99 1014.99 1015.31 1015.63 1015.79 1015.79
1006.39 1006.55 1006.83 1006.95 1007.15 1007.27 1007.43 1007.55 1007.79 1008.11 1008.47 1008.71 1008.99 1009.43 1009.67 1009.99 1010.19 1010.43 1010.79 1011.03 1011.23 1011.47 1011.67 1011.75 1012.03 1012.23 1012.51 1012.71 1012.79 1012.95 1013.15 1013.39 1013.79 1014.03 1014.11 1014.15 1014.23 1014.47 1014.87 1015.11 1015.07 1015.35
1006.03 1006.27 1006.39 1006.55 1006.67 1006.87 1006.99 1007.31 1007.59 1007.87 1008.23 1008.43 1008.83 1009.11 1009.31 1009.63 1009.91 1010.19 1010.47 1010.71 1010.87 1010.95 1011.19 1011.43 1011.63 1012.03 1012.35 1012.55 1012.71 1012.83 1013.03 1013.23 1013.51 1013.75 1013.83 1013.87 1013.99 1014.15 1014.39 1014.63 1014.75 1014.67
1005.51 1005.95 1006.11 1006.31 1006.47 1006.63 1006.79 1007.07 1007.31 1007.63 1007.95 1008.23 1008.43 1008.59 1008.87 1009.15 1009.47 1009.95 1010.15 1010.35 1010.55 1010.71 1010.95 1011.23 1011.59 1011.91 1012.07 1012.23 1012.51 1012.79 1012.99 1013.15 1013.35 1013.59 1013.71 1013.79 1013.91 1014.07 1014.23 1014.47 1014.47 1014.55
1005.23 1005.35 1005.63 1005.83 1006.03 1006.23 1006.55 1006.87 1007.11 1007.35 1007.59 1007.79 1008.11 1008.23 1008.55 1009.03 1009.39 1009.67 1009.91 1010.03 1010.15 1010.39 1010.59 1010.79 1011.11 1011.43 1011.63 1011.79 1012.07 1012.35 1012.59 1012.83 1013.03 1013.23 1013.43 1013.63 1013.75 1013.91 1014.11 1014.35 1014.43 1014.51
1005.39 1005.47 1005.55 1005.67 1005.87 1006.11 1006.35 1006.55 1006.79 1007.03 1007.19 1007.43 1007.79 1007.99 1008.15 1008.39 1008.67 1008.95 1009.15 1009.39 1009.43 1009.63 1009.87 1010.23 1010.55 1010.83 1011.03 1011.27 1011.55 1011.83 1012.15 1012.39 1012.59 1012.87 1013.15 1013.39 1013.59 1013.87 1014.07 1014.23 1014.35 1014.43
1004.87 1005.11 1005.23 1005.43 1005.59 1005.79 1005.95 1006.11 1006.27 1006.43 1006.71 1006.95 1007.15 1007.31 1007.51 1007.59 1007.83 1008.15 1008.47 1008.67 1008.91 1009.15 1009.43 1009.71 1009.99 1010.15 1010.35 1010.63 1011.03 1011.39 1011.67 1011.95 1012.27 1012.55 1012.79 1013.07 1013.39 1013.67 1013.91 1014.07 1014.23 1014.27
1004.23 1004.47 1004.67 1004.87 1005.11 1005.19 1005.27 1005.51 1005.79 1006.07 1006.35 1006.55 1006.67 1006.87 1007.07 1007.31 1007.63 1007.83 1007.99 1008.11 1008.47 1008.75 1008.99 1009.23 1009.35 1009.43 1009.59 1009.87 1010.07 1010.39 1010.79 1011.15 1011.55 1011.83 1012.15 1012.43 1012.71 1013.07 1013.39 1013.59 1013.67 1013.87
1004.07 1004.19 1004.47 1004.63 1004.67 1004.95 1005.19 1005.47 1005.71 1006.07 1006.31 1006.43 1006.67 1006.91 1007.07 1007.35 1007.63 1007.79 1007.87 1008.07 1008.19 1008.39 1008.63 1008.75 1008.79 1008.87 1009.07 1009.27 1009.47 1009.71 1010.11 1010.59 1010.83 1011.15 1011.43 1011.71 1011.99 1012.27 1012.51 1012.91 1013.27 1013.55
1004.07 1004.31 1004.55 1004.59 1004.91 1005.03 1005.31 1005.55 1005.83 1006.03 1006.15 1006.31 1006.55 1006.75 1006.99 1007.35 1007.47 1007.39 1007.59 1007.79 1007.95 1008.11 1008.23 1008.27 1008.43 1008.55 1008.79 1008.91 1009.11 1009.35 1009.67 1009.99 1010.35 1010.59 1010.91 1011.19 1011.39 1011.63 1011.87 1012.31 1012.75 1013.23
1003.99 1004.19 1004.27 1004.43 1004.59 1004.87 1005.11 1005.39 1005.55 1005.67 1005.71 1005.87 1005.91 1006.11 1006.67 1006.83 1006.75 1007.07 1007.15 1007.35 1007.55 1007.67 1007.83 1007.95 1008.11 1008.27 1008.47 1008.63 1008.87 1009.11 1009.31 1009.67 1009.99 1010.15 1010.39 1010.59 1010.83 1011.07 1011.35 1011.71 1012.19 1012.67
1003.51 1003.71 1003.75 1003.91 1004.27 1004.59 1004.79 1004.91 1005.07 1004.91 1004.95 1005.23 1005.51 1005.95 1006.15 1006.23 1006.39 1006.55 1006.75 1006.91 1007.07 1007.27 1007.35 1007.55 1007.71 1007.91 1008.15 1008.35 1008.63 1008.83 1008.99 1009.23 1009.51 1009.79 1009.95 1010.11 1010.31 1010.55 1010.79 1011.15 1011.51 1011.91
1002.99 1003.11 1003.19 1003.43 1003.75 1004.03 1004.31 1004.35 1004.35 1004.43 1004.67 1004.83 1005.15 1005.35 1005.59 1005.67 1005.87 1006.15 1006.19 1006.43 1006.71 1006.91 1007.07 1007.15 1007.19 1007.43 1007.67 1007.95 1008.19 1008.47 1008.71 1008.99 1009.27 1009.55 1009.75 1009.91 1010.11 1010.31 1010.47 1010.67 1011.03 1011.35
1002.35 1002.51 1002.67 1002.99 1003.35 1003.67 1003.87 1003.87 1003.95 1004.11 1004.27 1004.63 1004.95 1005.11 1005.27 1005.43 1005.55 1005.71 1005.83 1006.11 1006.35 1006.59 1006.71 1006.71 1006.75 1007.07 1007.39 1007.67 1007.95 1008.23 1008.51 1008.75 1008.95 1009.23 1009.43 1009.63 1009.83 1010.03 1010.23 1010.47 1010.67 1010.91
1002.23 1002.43 1002.63 1002.87 1003.15 1003.39 1003.47 1003.51 1003.75 1004.03 1004.27 1004.51 1004.75 1004.91 1005.07 1005.15 1005.15 1005.27 1005.51 1005.75 1005.91 1006.11 1006.27 1006.27 1006.51 1006.75 1007.03 1007.27 1007.55 1007.79 1008.15 1008.39 1008.63 1008.87 1009.07 1009.27 1009.43 1009.75 1010.03 1010.27 1010.43 1010.71
1002.51 1002.59 1002.67 1002.83 1002.99 1002.99 1002.99 1003.23 1003.47 1003.71 1003.91 1004.23 1004.31 1004.43 1004.63 1004.63 1004.87 1005.11 1005.27 1005.39 1005.55 1005.67 1005.79 1006.03 1006.11 1006.39 1006.67 1006.87 1007.11 1007.35 1007.59 1007.91 1008.11 1008.39 1008.63 1008.99 1009.39 1009.75 1010.03 1010.27 1010.47 1010.75
1002.27 1002.47 1002.59 1002.63 1002.59 1002.51 1002.67 1002.83 1003.03 1003.27 1003.51 1003.87 1004.07 1004.23 1004.27 1004.51 1004.79 1004.91 1005.03 1005.19 1005.27 1005.39 1005.55 1005.71 1005.83 1006.11 1006.31 1006.55 1006.71 1006.99 1007.23 1007.47 1007.75 1008.07 1008.43 1008.79 1009.31 1009.71 1009.95 1010.19 1010.51 1010.71
1002.03 1002.15 1002.35 1002.47 1002.35 1002.35 1002.55 1002.67 1002.87 1003.07 1003.27 1003.55 1003.79 1003.99 1004.15 1004.35 1004.51 1004.63 1004.75 1004.83 1005.03 1005.23 1005.35 1005.47 1005.67 1005.83 1006.11 1006.27 1006.43 1006.59 1006.75 1007.07 1007.31 1007.75 1007.99 1008.51 1008.95 1009.23 1009.79 1010.11 1010.31 1010.55
Wind_Speed
9 8 10 9 10 9 9 9 8 8 8 7 8 8 9 8 5 7 7 5 5 5 5 5 5 5 5 5 5 5 6 7 6 7 8 8 7 8 8 7 6 6
12 10 9 8 7 6 7 8 9 9 9 9 9 7 6 4 6 6 7 7 6 6 6 6 7 7 8 7 7 8 7 7 8 5 7 7 6 6 5 5 5 3
10 9 10 11 12 11 10 8 7 8 8 8 6 5 6 5 6 6 7 8 8 8 8 7 8 8 8 8 7 6 5 5 4 2 3 4 3 5 3 4 4 6
11 11 11 11 10 10 8 7 7 7 5 6 8 8 7 6 6 7 7 8 8 8 7 7 7 4 4 3 3 3 2 2 1 3 4 3 3 4 5 5 4 4
11 10 9 9 8 6 6 8 9 8 8 9 6 7 8 8 8 8 8 8 7 6 5 5 4 4 4 5 5 6 4 5 3 5 5 6 5 6 6 6 7 7
7 8 9 9 9 8 8 10 10 9 9 8 11 8 8 9 8 8 8 8 7 7 7 6 6 5 6 6 6 6 6 6 5 6 6 7 6 5 6 6 7 7
10 10 11 10 8 8 9 10 9 9 10 11 6 8 8 8 8 9 9 9 8 8 8 8 8 7 7 7 7 7 7 7 6 7 7 6 6 6 4 6 7 7
12 10 10 8 10 10 11 11 10 11 11 6 8 8 8 9 9 8 7 8 8 8 8 8 8 9 9 8 9 9 8 6 8 9 8 7 6 8 7 6 6 7
11 10 9 11 12 11 11 12 11 10 6 9 8 7 7 8 9 9 8 8 8 8 9 9 10 10 9 10 10 11 11 9 9 10 10 10 10 10 10 8 8 8
9 9 10 10 11 10 12 11 9 7 6 8 7 6 8 8 8 9 8 9 10 9 10 10 10 10 10 10 12 12 11 12 10 11 11 11 11 11 10 10 11 10
10 9 10 11 11 9 11 9 8 8 7 8 7 8 8 8 8 7 9 9 10 11 11 11 11 9 9 10 9 8 9 9 10 10 10 10 10 10 9 11 10 12
10 9 9 9 10 9 9 9 9 8 7 7 9 10 9 9 9 7 8 10 9 10 9 9 8 9 10 10 10 8 8 8 8 9 9 9 9 8 9 9 10 10
10 11 10 11 10 10 8 7 8 8 8 9 8 9 8 7 6 7 7 8 9 8 9 10 9 9 10 10 10 9 9 9 9 9 9 9 8 8 8 8 9 8
7 7 8 8 7 7 7 7 7 7 8 7 7 8 9 9 10 10 10 9 10 10 10 9 9 10 10 10 9 10 9 10 10 9 9 8 7 7 7 8 8 8
8 7 7 7 7 7 8 9 9 9 8 9 9 9 9 10 10 10 10 11 9 9 9 9 9 10 10 10 10 10 10 10 10 9 9 9 8 7 7 8 8 8
10 8 9 9 9 10 11 10 9 9 9 9 10 9 9 9 8 9 10 11 10 10 9 9 10 9 12 15 13 11 12 10 9 10 10 10 10 9 9 9 9 8
8 8 7 9 10 8 7 7 8 6 7 8 8 7 8 7 7 9 9 8 10 10 11 10 10 10 15 17 20 19 12 11 11 11 10 11 11 11 11 11 9 8
7 5 6 8 5 7 6 5 5 6 7 8 7 8 7 5 8 10 9 9 9 9 11 10 10 10 16 18 19 19 16 12 10 10 10 11 11 11 10 10 10 8
6 7 8 8 8 7 6 6 7 8 9 9 11 9 6 9 11 9 10 9 10 11 11 10 10 11 17 18 18 19 19 14 10 10 10 11 11 12 11 10 9 9
8 9 9 9 7 7 7 8 9 12 10 9 7 6 9 10 9 10 9 10 10 10 10 9 10 10 17 17 18 19 19 17 11 11 11 11 12 12 11 11 12 11
9 9 10 8 8 8 8 9 11 10 9 8 8 9 9 10 10 10 10 9 9 9 9 9 10 13 16 18 18 19 19 16 11 9 10 10 10 11 11 12 12 11
10 10 9 7 7 7 8 10 10 10 9 6 6 6 6 6 7 7 9 8 8 9 9 11 9 12 15 17 18 18 19 12 10 11 10 10 10 10 10 10 11 11
7 7 7 7 6 7 9 10 8 7 6 5 6 7 7 8 9 8 7 8 9 9 10 10 8 10 15 17 18 20 15 10 10 9 10 10 10 9 10 10 10 11
4 5 6 6 6 9 10 8 6 5 6 6 8 8 9 9 7 6 7 7 8 10 10 10 9 10 15 17 19 20 17 11 10 10 10 9 8 7 7 8 9 11
6 6 6 7 8 9 8 7 7 7 5 5 7 6 7 4 5 6 6 6 7 8 9 11 9 8 14 17 19 20 16 10 9 8 9 8 8 7 6 8 6 11
5 6 6 7 8 6 5 6 4 4 5 6 6 6 6 6 6 6 7 7 6 7 8 8 9 7 9 17 18 20 21 12 9 9 10 9 9 10 7 5 5 7
Wind_Direction
200 196 200 197 204 203 195 195 197 198 203 199 204 210 206 209 173 189 196 191 198 193 189 183 177 179 182 180 185 187 194 198 193 183 185 181 188 178 185 184 185 185
205 200 203 201 208 205 206 198 197 197 203 201 209 206 205 173 191 182 191 195 194 197 186 185 187 185 182 185 186 188 196 195 199 187 180 187 188 183 187 177 171 143
205 201 200 200 205 205 204 198 195 203 203 206 199 198 194 187 185 190 192 194 195 194 192 192 192 194 189 189 186 192 197 199 210 177 177 185 155 176 166 160 158 176
209 206 205 210 209 208 198 187 203 203 198 189 203 199 190 190 185 191 198 196 198 199 197 193 198 191 190 173 166 191 192 211 197 158 166 133 164 159 165 164 165 171
205 206 210 213 214 205 181 195 204 203 198 208 195 189 189 186 193 195 196 202 199 202 188 193 181 183 172 176 178 188 185 195 170 171 174 176 179 168 174 168 172 181
205 206 210 210 206 194 194 202 207 200 204 201 209 191 196 195 192 194 194 196 197 191 187 185 186 185 177 182 182 195 185 187 189 179 188 187 182 182 171 179 175 182
200 201 207 204 200 196 203 208 207 204 207 212 185 198 189 191 195 197 195 197 191 194 190 189 186 185 183 182 189 196 192 190 179 190 194 194 179 185 188 181 184 181
205 203 201 193 200 200 206 208 209 208 210 193 198 201 183 197 197 196 196 192 192 196 193 191 191 191 185 184 193 196 196 187 186 190 196 192 186 192 189 190 181 180
206 201 193 199 201 205 209 211 213 214 193 197 203 193 193 195 195 195 192 190 195 197 193 196 197 196 189 190 197 195 195 194 191 190 194 191 194 198 189 180 182 188
211 204 199 203 206 208 212 214 212 208 188 202 198 186 194 199 195 193 188 191 198 199 199 202 199 198 194 198 200 197 197 197 192 196 199 200 199 194 186 186 188 182
213 204 207 207 211 209 215 209 208 202 191 197 188 197 200 194 201 190 194 194 201 204 204 206 205 198 201 206 209 206 205 202 200 201 204 205 204 198 191 190 189 194
207 203 211 212 214 215 213 207 204 199 195 199 193 203 204 201 196 192 197 203 208 211 208 210 203 200 205 207 206 204 206 207 205 207 209 209 206 202 197 196 196 194
203 205 203 209 210 213 210 206 204 201 198 205 198 206 203 197 197 196 203 204 211 207 207 205 201 201 205 207 205 203 204 204 206 207 209 210 210 205 199 201 202 198
221 218 216 216 213 209 207 205 201 200 204 202 188 202 202 197 195 198 203 201 208 206 207 200 199 203 207 206 205 202 201 208 206 206 208 210 210 204 202 204 205 203
212 209 210 210 204 203 203 204 202 202 198 197 197 202 201 202 198 194 199 207 207 205 202 197 201 206 204 202 201 202 202 206 205 206 205 207 205 204 204 205 206 206
206 203 202 202 202 204 209 203 203 201 198 201 205 205 204 201 197 199 204 207 203 205 203 200 208 208 207 198 196 199 199 201 199 203 201 201 201 201 205 205 206 203
201 209 201 208 210 210 209 204 206 199 204 211 211 207 208 202 195 206 212 208 209 206 207 211 212 212 204 203 204 200 193 198 199 202 200 201 202 200 205 202 203 199
209 204 210 220 209 216 207 205 198 201 211 213 210 210 207 187 205 213 211 210 212 214 215 216 219 208 205 208 206 203 195 199 202 203 200 204 203 204 206 199 196 191
198 202 212 213 210 203 198 191 200 208 214 210 212 206 184 201 215 210 216 212 211 216 221 218 224 203 209 209 207 206 202 195 209 206 204 207 204 204 203 197 190 190
198 202 212 213 199 195 192 199 203 214 215 211 207 189 201 212 214 215 215 214 214 216 222 221 223 209 209 208 207 205 204 199 213 208 211 210 206 203 203 199 194 193
199 203 211 205 197 194 196 207 212 219 214 209 201 202 204 212 211 214 219 216 216 215 222 225 224 208 207 207 207 206 207 201 213 213 215 216 212 209 207 202 198 198
196 205 209 202 196 195 204 216 218 217 217 204 202 212 215 215 224 217 221 215 215 215 219 230 225 202 206 206 208 208 205 208 213 214 217 216 215 212 208 205 202 198
202 205 208 203 196 199 214 221 219 220 222 189 207 212 214 217 221 219 214 213 216 214 220 230 228 204 202 204 205 206 204 211 212 215 218 217 216 211 208 201 197 190
205 207 211 206 199 211 218 221 216 218 212 188 207 210 218 223 218 223 218 215 216 219 217 226 227 208 204 203 205 205 203 209 212 214 220 215 217 204 202 198 189 175
198 203 211 211 213 219 216 219 213 213 201 190 211 214 227 211 208 219 226 219 219 223 217 220 228 213 203 206 204 205 205 212 210 215 214 212 197 196 174 148 157 179
196 201 215 218 225 228 218 220 207 198 199 196 209 206 219 212 212 216 225 228 214 220 222 220 224 220 205 207 206 208 206 206 210 203 214 202 193 182 161 164 153 171